• En España
  • Lista de países
  • Para 7 días
  • Temperatura del agua
  • Mapa Satelital
  • El tiempo en el mapa
  • Informadores
  • user-avatar
    Iniciar sesión

    Tiempo cada hora Sobreda

    Hoy, 23 Septiembre, Domingo

    Tiempo Temperatura Precipitaciones Viento Presión Humedad
    00:00 +22°C° 0 mm 4 mps 759 mmHg 60%
    01:00 +22°C° 0 mm 4 mps 759 mmHg 60%
    02:00 +22°C° 0 mm 4 mps 759 mmHg 59%
    03:00 +22°C° 0 mm 4 mps 759 mmHg 59%
    04:00 +22°C° 0 mm 4 mps 759 mmHg 59%
    05:00 +22°C° 0 mm 4 mps 759 mmHg 59%
    06:00 +25°C° 0 mm 5 mps 759 mmHg 51%
    07:00 +27°C° 0 mm 5 mps 759 mmHg 44%
    08:00 +30°C° 0 mm 5 mps 759 mmHg 36%
    09:00 +33°C° 0 mm 5 mps 759 mmHg 31%
    10:00 +36°C° 0 mm 5 mps 759 mmHg 26%
    11:00 +39°C° 0 mm 5 mps 759 mmHg 21%
    12:00 +40°C° 0 mm 6 mps 759 mmHg 21%
    13:00 +40°C° 0 mm 6 mps 759 mmHg 21%
    14:00 +40°C° 0 mm 7 mps 758 mmHg 20%
    15:00 +38°C° 0 mm 7 mps 758 mmHg 24%
    16:00 +35°C° 0 mm 8 mps 758 mmHg 27%
    17:00 +33°C° 0 mm 9 mps 758 mmHg 31%
    18:00 +31°C° 0 mm 8 mps 758 mmHg 37%
    19:00 +28°C° 0 mm 8 mps 758 mmHg 44%
    20:00 +26°C° 0 mm 7 mps 759 mmHg 51%
    21:00 +24°C° 0 mm 7 mps 759 mmHg 54%
    22:00 +24°C° 0 mm 6 mps 759 mmHg 58%
    23:00 +23°C° 0 mm 6 mps 758 mmHg 61%

    Mañana, 24 Septiembre, Lunes

    Tiempo Temperatura Precipitaciones Viento Presión Humedad
    00:00 +22°C° 0 mm 5 mps 758 mmHg 64%
    01:00 +22°C° 0 mm 5 mps 758 mmHg 66%
    02:00 +21°C° 0 mm 4 mps 758 mmHg 69%
    03:00 +21°C° 0 mm 4 mps 758 mmHg 68%
    04:00 +21°C° 0 mm 4 mps 758 mmHg 68%
    05:00 +21°C° 0 mm 4 mps 757 mmHg 67%
    06:00 +25°C° 0 mm 4 mps 758 mmHg 57%
    07:00 +27°C° 0 mm 4 mps 758 mmHg 46%
    08:00 +29°C° 0 mm 3 mps 758 mmHg 36%
    09:00 +33°C° 0 mm 3 mps 758 mmHg 31%
    10:00 +36°C° 0 mm 3 mps 758 mmHg 25%
    11:00 +39°C° 0 mm 3 mps 758 mmHg 19%
    12:00 +40°C° 0 mm 4 mps 757 mmHg 19%
    13:00 +41°C° 0 mm 5 mps 757 mmHg 19%
    14:00 +41°C° 0 mm 5 mps 757 mmHg 19%
    15:00 +39°C° 0 mm 5 mps 756 mmHg 22%
    16:00 +36°C° 0 mm 6 mps 756 mmHg 25%
    17:00 +34°C° 0 mm 6 mps 756 mmHg 29%
    18:00 +32°C° 0 mm 6 mps 756 mmHg 36%
    19:00 +29°C° 0 mm 5 mps 757 mmHg 43%
    20:00 +27°C° 0 mm 5 mps 757 mmHg 49%
    21:00 +26°C° 0 mm 4 mps 757 mmHg 52%
    22:00 +25°C° 0 mm 4 mps 757 mmHg 55%
    23:00 +25°C° 0 mm 3 mps 757 mmHg 58%

    Pasado mañana, 25 Septiembre, Martes

    Tiempo Temperatura Precipitaciones Viento Presión Humedad
    00:00 +24°C° 0 mm 3 mps 756 mmHg 59%
    01:00 +24°C° 0 mm 2 mps 756 mmHg 60%
    02:00 +24°C° 0 mm 2 mps 756 mmHg 61%
    03:00 +23°C° 0 mm 2 mps 756 mmHg 62%
    04:00 +23°C° 0 mm 2 mps 756 mmHg 62%
    05:00 +23°C° 0 mm 2 mps 756 mmHg 63%
    06:00 +25°C° 0 mm 2 mps 756 mmHg 55%
    07:00 +27°C° 0 mm 1 mps 756 mmHg 47%
    08:00 +29°C° 0 mm 1 mps 757 mmHg 40%
    09:00 +31°C° 0 mm 2 mps 757 mmHg 36%
    10:00 +34°C° 0 mm 2 mps 757 mmHg 32%
    11:00 +36°C° 0 mm 3 mps 757 mmHg 28%
    12:00 +36°C° 0 mm 3 mps 756 mmHg 28%
    13:00 +36°C° 0 mm 3 mps 756 mmHg 28%
    14:00 +36°C° 0 mm 4 mps 756 mmHg 28%
    15:00 +34°C° 0 mm 4 mps 756 mmHg 32%
    16:00 +33°C° 0 mm 3 mps 756 mmHg 36%
    17:00 +30°C° 0 mm 3 mps 756 mmHg 40%
    18:00 +28°C° 0 mm 3 mps 756 mmHg 47%
    19:00 +26°C° 0 mm 2 mps 757 mmHg 54%
    20:00 +24°C° 0 mm 2 mps 757 mmHg 62%
    21:00 +24°C° 0 mm 1 mps 757 mmHg 64%
    22:00 +23°C° 0 mm 1 mps 757 mmHg 65%
    23:00 +21°C° 0 mm 0 mps 757 mmHg 67%

    26 Septiembre, Miércoles

    Tiempo Temperatura Precipitaciones Viento Presión Humedad
    00:00 +23°C° 0 mm 1 mps 757 mmHg 66%
    01:00 +23°C° 0 mm 1 mps 757 mmHg 65%
    02:00 +23°C° 0 mm 2 mps 757 mmHg 64%
    03:00 +23°C° 0 mm 2 mps 757 mmHg 66%
    04:00 +21°C° 0 mm 2 mps 757 mmHg 68%
    05:00 +21°C° 0 mm 2 mps 757 mmHg 70%
    06:00 +24°C° 0 mm 2 mps 757 mmHg 65%
    07:00 +26°C° 0 mm 2 mps 757 mmHg 61%
    08:00 +28°C° 0 mm 2 mps 758 mmHg 56%
    09:00 +30°C° 0 mm 2 mps 758 mmHg 49%
    10:00 +32°C° 0 mm 2 mps 758 mmHg 42%
    11:00 +36°C° 0 mm 2 mps 758 mmHg 35%
    12:00 +36°C° 0 mm 2 mps 758 mmHg 34%
    13:00 +36°C° 0 mm 3 mps 757 mmHg 32%
    14:00 +37°C° 0 mm 3 mps 757 mmHg 31%
    15:00 +35°C° 0 mm 3 mps 757 mmHg 38%
    16:00 +33°C° 0 mm 3 mps 757 mmHg 46%
    17:00 +30°C° 0 mm 3 mps 757 mmHg 53%
    18:00 +28°C° 0 mm 3 mps 758 mmHg 61%
    19:00 +26°C° 0 mm 3 mps 758 mmHg 68%
    20:00 +25°C° 0 mm 2 mps 759 mmHg 75%
    21:00 +24°C° 0 mm 2 mps 759 mmHg 77%
    22:00 +24°C° 0 mm 2 mps 759 mmHg 79%
    23:00 +24°C° 0 mm 1 mps 759 mmHg 80%

    27 Septiembre, Jueves

    Tiempo Temperatura Precipitaciones Viento Presión Humedad
    00:00 +23°C° 0 mm 1 mps 758 mmHg 81%
    01:00 +23°C° 0 mm 1 mps 758 mmHg 81%
    02:00 +23°C° 0 mm 1 mps 758 mmHg 82%
    03:00 +22°C° 0 mm 1 mps 758 mmHg 82%
    04:00 +22°C° 0 mm 1 mps 758 mmHg 82%
    05:00 +22°C° 0 mm 1 mps 758 mmHg 82%
    06:00 +24°C° 0 mm 1 mps 759 mmHg 73%
    07:00 +26°C° 0 mm 1 mps 759 mmHg 64%
    08:00 +28°C° 0 mm 2 mps 759 mmHg 55%
    09:00 +30°C° 0 mm 2 mps 759 mmHg 49%
    10:00 +32°C° 0 mm 2 mps 759 mmHg 42%
    11:00 +36°C° 0 mm 2 mps 759 mmHg 35%
    12:00 +36°C° 0 mm 3 mps 759 mmHg 34%
    13:00 +36°C° 0 mm 4 mps 758 mmHg 32%
    14:00 +37°C° 0 mm 5 mps 758 mmHg 31%
    15:00 +34°C° 0.3 mm 5 mps 758 mmHg 39%
    16:00 +32°C° 0.3 mm 6 mps 758 mmHg 47%
    17:00 +29°C° 0.3 mm 6 mps 758 mmHg 55%
    18:00 +27°C° 0.4 mm 6 mps 758 mmHg 60%
    19:00 +26°C° 0.4 mm 6 mps 759 mmHg 66%
    20:00 +24°C° 0.4 mm 6 mps 759 mmHg 71%
    21:00 +25°C° 0.6 mm 5 mps 759 mmHg 73%
    22:00 +23°C° 0.6 mm 5 mps 758 mmHg 75%
    23:00 +23°C° 0.6 mm 4 mps 758 mmHg 77%

    28 Septiembre, Viernes

    Tiempo Temperatura Precipitaciones Viento Presión Humedad
    00:00 +23°C° 0.1 mm 4 mps 758 mmHg 77%
    01:00 +23°C° 0.1 mm 4 mps 757 mmHg 77%
    02:00 +22°C° 0.1 mm 3 mps 757 mmHg 78%
    03:00 +22°C° 0 mm 3 mps 757 mmHg 77%
    04:00 +22°C° 0 mm 3 mps 757 mmHg 77%
    05:00 +22°C° 0 mm 3 mps 757 mmHg 77%
    06:00 +24°C° 0 mm 3 mps 757 mmHg 70%
    07:00 +26°C° 0 mm 3 mps 757 mmHg 62%
    08:00 +27°C° 0 mm 3 mps 758 mmHg 54%
    09:00 +29°C° 0 mm 3 mps 758 mmHg 48%
    10:00 +33°C° 0 mm 3 mps 757 mmHg 42%
    11:00 +35°C° 0 mm 4 mps 757 mmHg 35%
    12:00 +35°C° 0 mm 4 mps 757 mmHg 35%
    13:00 +35°C° 0 mm 5 mps 756 mmHg 35%
    14:00 +35°C° 0 mm 6 mps 756 mmHg 34%
    15:00 +33°C° 0.1 mm 6 mps 756 mmHg 41%
    16:00 +30°C° 0.1 mm 7 mps 756 mmHg 47%
    17:00 +28°C° 0.1 mm 7 mps 756 mmHg 53%
    18:00 +27°C° 0.3 mm 7 mps 756 mmHg 58%
    19:00 +24°C° 0.3 mm 6 mps 756 mmHg 62%
    20:00 +23°C° 0.3 mm 6 mps 756 mmHg 67%
    21:00 +22°C° 0.2 mm 6 mps 756 mmHg 67%
    22:00 +22°C° 0.2 mm 5 mps 756 mmHg 68%
    23:00 +21°C° 0.2 mm 5 mps 755 mmHg 69%
    Mostrar más